Home > Weather > Kazan > Past weeks

Flag for Russia Past Weather in Kazan, Russia — Yesterday and Last 2 Weeks

Now
73 °F

Passing clouds.


Feels Like: 77 °F
Forecast: 61 / 85 °F
Wind: 6 mph from Northwest

Location: Kazan'

Current Time: Jul 28, 2016 at 8:08:23 AM

Latest Report: Jul 28, 2016 at 7:30 AM


Visibility: N/A

Pressure: 29.95 "Hg

Humidity: 57%

Dew Point: 57 °F

Location of KazanLocation

Past Weather in Kazan — Graph

°F

Kazan Temperature Yesterday

Maximum temperature yesterday: 84 °F (at 11:30 AM)
Minimum temperature yesterday: 57 °F (at 2:30 AM)
Average temperature yesterday: 73 °F

High & Low Weather Summary for the Past Weeks

 TemperatureHumidityPressure
High88 °F (Jul 24, 1:30 PM)94% (Jul 15, 1:30 AM)30.04 "Hg (Jul 15, 1:30 AM)
Low57 °F (Jul 26, 3:00 AM)25% (Jul 26, 2:30 PM)29.77 "Hg (Jul 13, 2:30 PM)
Average73 °F58%29.90 "Hg
* Reported Jul 13 7:00 AM — Jul 28 7:00 AM, Kazan, Weather by CustomWeather, © 2016

Note: Actual official high and low records may vary slightly from our data, if they occured in-between our weather recording intervals... More about our weather records

Advertising

Kazan Weather History for the Previous 24 Hours

Scroll right to see more
 ConditionsComfort  
Time TempWeatherWind HumidityBarometerVisibility
7:00 AM
Thu, Jul 28
73 °FSunny.6 mph61%29.95 "Hg10 mi
6:30 AM70 °FSunny.6 mph64%29.98 "Hg10 mi
6:00 AM68 °FSunny.3 mph73%29.95 "Hg10 mi
5:30 AM64 °FSunny.6 mph78%29.95 "Hg10 mi
5:00 AM64 °FSunny.6 mph78%29.98 "Hg10 mi
4:30 AM63 °FSunny.3 mph83%29.95 "Hg10 mi
4:00 AM63 °FSunny.3 mph83%29.95 "Hg10 mi
3:30 AM63 °FClear.6 mph83%29.95 "Hg10 mi
3:00 AM64 °FClear.6 mph78%29.95 "Hg10 mi
2:30 AM64 °FClear.3 mph78%29.95 "Hg10 mi
2:00 AM64 °FClear.3 mph78%29.95 "Hg10 mi
1:30 AM64 °FPassing clouds.3 mph78%29.95 "HgN/A
1:00 AM63 °FClear.1 mph83%29.95 "Hg10 mi
12:30 AM63 °FClear.1 mph77%29.98 "Hg10 mi
12:00 AM64 °FClear.3 mph73%29.98 "Hg10 mi
11:30 PM
Wed, Jul 27
64 °FClear.3 mph73%29.98 "Hg10 mi
11:00 PM64 °FClear.3 mph73%29.95 "Hg10 mi
10:30 PM66 °FClear.3 mph68%29.95 "Hg10 mi
10:00 PM68 °FClear.3 mph64%29.95 "Hg10 mi
9:30 PM68 °FClear.6 mph64%29.95 "Hg10 mi
9:00 PM70 °FClear.6 mph57%29.95 "Hg10 mi
8:30 PM68 °FClear.3 mph60%29.95 "Hg10 mi
8:00 PM73 °FPassing clouds.3 mph50%29.95 "HgN/A
7:30 PM73 °FSunny.1 mph50%29.95 "Hg10 mi
7:00 PM77 °FSunny.3 mph42%29.95 "Hg10 mi
6:30 PM79 °FSunny.8 mph37%29.95 "Hg10 mi
6:00 PM82 °FSunny.8 mph32%29.95 "Hg10 mi
5:30 PM82 °FPassing clouds.10 mph30%29.95 "HgN/A
5:00 PM82 °FSunny.10 mph32%29.95 "Hg10 mi
4:30 PM84 °FPassing clouds.8 mph29%29.95 "HgN/A
4:00 PM84 °FSunny.6 mph29%29.95 "Hg10 mi
3:30 PM82 °FPassing clouds.6 mph30%29.95 "HgN/A
3:00 PM82 °FSunny.1 mph30%29.95 "Hg10 mi
2:30 PM82 °FPassing clouds.3 mph30%29.95 "HgN/A
2:00 PM84 °FPassing clouds.6 mph29%29.98 "HgN/A
1:30 PM84 °FClear.6 mph27%29.98 "Hg6 mi
1:00 PM84 °FPassing clouds.6 mph29%29.98 "HgN/A
12:30 PM82 °FPassing clouds.3 mph28%30.01 "HgN/A
12:00 PM81 °FPassing clouds.6 mph32%30.01 "HgN/A
11:30 AM84 °FSunny.3 mph27%30.01 "Hg10 mi
11:00 AM82 °FSunny.3 mph28%30.01 "Hg10 mi
10:30 AM81 °FPassing clouds.6 mph30%30.01 "HgN/A
10:00 AM81 °FSunny.6 mph32%30.04 "Hg10 mi
9:30 AM81 °FSunny.3 mph32%30.04 "Hg10 mi
9:00 AM79 °FClear.3 mph32%30.04 "Hg6 mi
8:30 AM79 °FClear.3 mph37%30.04 "Hg6 mi
8:00 AM75 °FPassing clouds.3 mph41%30.04 "HgN/A
Weather by CustomWeather, © 2016

See weather overviewHow to use our weather pages